User: anonymous   Login
Location: NJAA Observatory
(40.6819°N, 74.8979°W)
Time: 23:37:21
(UTC-04:00)
Language:

Meteor 1-28 Rocket - Orbit

View from above orbital plane
View from above orbital plane
View from above satellite
View from above satellite

Ground track
Ground track

The orbit data is extracted from the following two-line orbital elements,

1 10114U 77057B   16244.49365153  .00000633  00000-0  35808-4 0  9996
2 10114  97.2014  75.4519 0012536 249.6123 110.3765 15.16367762139647
Epoch (UTC): 31 August 2016 11:50:51
Eccentricity: 0.0012536
inclination: 97.2014°
perigee height: 508 km
apogee height: 525 km
right ascension of ascending node: 75.4519°
argument of perigee: 249.6123°
revolutions per day: 15.16367762
mean anomaly at epoch: 110.3765°
orbit number at epoch: 13964

The dashed part of the orbit path shows where the satellite is in the earth's shadow,  

DLR